This demonstration page uses our WeatherBlox Daily Observations layout. Learn more.

Left ArrowRight Arrow

39.01783, -85.05884

Hourly Observations for August 21, 2020

Temp ( °F °C ) Dew Point ( °F °C ) Humidity (%) Winds ( mph kmh ) Pressure ( in mb ) Visibility ( mi km ) Precip ( " mm )
12:52 am 00:52 Cloudy 71 21.7 56 13.3 59 59 Calm 29.93 1014 10 16.0934 0 0
1:52 am 01:52 Mostly Cloudy 68 20 58 14.4 70 70 Calm 29.93 1014 10 16.0934 0 0
2:52 am 02:52 Mostly Cloudy 67 19.4 58 14.4 73 73 N 3 6 29.92 1013 10 16.0934 0 0
3:52 am 03:52 Mostly Cloudy 67 19.4 58 14.4 73 73 Calm 29.92 1013 10 16.0934 0 0
4:52 am 04:52 Cloudy 64 17.8 60 15.6 87 87 N 6 9 29.93 1014 10 16.0934 0 0
5:52 am 05:52 Mostly Cloudy 65 18.3 58 14.4 78 78 NNE 5 7 29.94 1014 10 16.0934 0 0
6:52 am 06:52 Cloudy 67 19.4 56 13.3 68 68 ENE 7 11 29.95 1014 10 16.0934 0 0
7:52 am 07:52 Mostly Cloudy 66 18.9 57 13.9 73 73 E 5 7 29.96 1014 10 16.0934 0 0
8:52 am 08:52 Mostly Cloudy 68 20 57 13.9 68 68 NE 6 9 29.96 1015 10 16.0934 0 0
9:52 am 09:52 Mostly Cloudy 71 21.7 57 13.9 61 61 ENE 6 9 29.97 1015 10 16.0934 0 0
10:52 am 10:52 Mostly Cloudy 75 23.9 58 14.4 55 55 ENE 7 11 29.97 1015 10 16.0934 0 0
11:52 am 11:52 Mostly Cloudy 78 25.6 58 14.4 50 50 ENE 5 7 29.96 1015 10 16.0934 0 0
12:52 pm 12:52 Mostly Cloudy 80 26.7 58 14.4 47 47 ENE 8 13 29.95 1014 10 16.0934 0 0
1:52 pm 13:52 Mostly Cloudy 82 27.8 60 15.6 47 47 NE 9 15 29.94 1014 10 16.0934 0 0
2:52 pm 14:52 Cloudy 82 27.8 61 16.1 49 49 SE 5 7 29.93 1013 10 16.0934 0 0
3:52 pm 15:52 Cloudy 82 27.8 62 16.7 51 51 ENE 5 7 29.91 1013 10 16.0934 0 0
4:52 pm 16:52 Cloudy 81 27.2 63 17.2 54 54 VRB 5 7 29.9 1013 10 16.0934 0 0
5:52 pm 17:52 Cloudy 82 27.8 62 16.7 51 51 E 6 9 29.9 1013 10 16.0934 0 0
6:52 pm 18:52 Cloudy 79 26.1 65 18.3 62 62 SSE 8 13 29.9 1012 10 16.0934 0 0
7:52 pm 19:52 Cloudy 77 25 66 18.9 69 69 Calm 29.91 1013 10 16.0934 0 0
8:52 pm 20:52 Mostly Cloudy 74 23.3 67 19.4 79 79 S 5 7 29.92 1013 10 16.0934 0 0
9:52 pm 21:52 Mostly Cloudy 75 23.9 67 19.4 76 76 Calm 29.92 1013 10 16.0934 0 0
10:52 pm 22:52 Cloudy 74 23.3 66 18.9 76 76 Calm 29.93 1014 10 16.0934 0 0
11:52 pm 23:52 Mostly Cloudy 72 22.2 67 19.4 84 84 Calm 29.93 1014 10 16.0934 0 0

Powered by AerisWeather